This is the latest recevied weather packets stored in our database for station/object W6ORV. If no packets are shown the sender has not sent any weather packets the latest 10 day(s).
| Time | Temp. | Humidity | Pressure | Rain* | Wind** | Luminosity | Snow |
|---|---|---|---|---|---|---|---|
| 1777548194 | 6.67° C | 93% | 4299.7 hPa | 0 mm | - | 0 W/m² | - |
| 1777547890 | 6.67° C | 93% | 4299.7 hPa | 0 mm | - | 0 W/m² | - |
| 1777547586 | 6.67° C | 93% | 4299.7 hPa | 0 mm | - | 0 W/m² | - |
| 1777547284 | 6.67° C | 93% | 4299.6 hPa | 0 mm | - | 0 W/m² | - |
| 1777546981 | 6.67° C | 92% | 4299.8 hPa | 0 mm | - | 0 W/m² | - |
| 1777546678 | 7.22° C | 91% | 4299.7 hPa | 0 mm | - | 0 W/m² | - |
| 1777546374 | 8.33° C | 90% | 4299.7 hPa | 0 mm | - | 0 W/m² | - |
| 1777546072 | 8.89° C | 90% | 4299.9 hPa | 0 mm | - | 0 W/m² | - |
| 1777545767 | 8.89° C | 91% | 4299.7 hPa | 0 mm | - | 0 W/m² | - |
| 1777545464 | 8.33° C | 91% | 4299.7 hPa | 0 mm | - | 0 W/m² | - |
| 1777545162 | 7.78° C | 90% | 4299.8 hPa | 0 mm | - | 0 W/m² | - |
| 1777544859 | 8.33° C | 89% | 4299.9 hPa | 0 mm | - | 0 W/m² | - |
| 1777544554 | 8.89° C | 89% | 4299.9 hPa | 0 mm | - | 0 W/m² | - |
| 1777544251 | 8.89° C | 89% | 4299.7 hPa | 0 mm | - | 0 W/m² | - |
| 1777543949 | 9.44° C | 89% | 4299.9 hPa | 0 mm | - | 0 W/m² | - |
| 1777543645 | 9.44° C | 89% | 4299.6 hPa | 0 mm | - | 0 W/m² | - |
| 1777543341 | 9.44° C | 88% | 4299.8 hPa | 0 mm | - | 0 W/m² | - |
| 1777543036 | 9.44° C | 88% | 4300 hPa | 0 mm | - | 0 W/m² | - |
| 1777542733 | 9.44° C | 88% | 4299.8 hPa | 0 mm | - | 0 W/m² | - |
| 1777542430 | 9.44° C | 88% | 4299.5 hPa | 0 mm | - | 0 W/m² | - |
| 1777542126 | 9.44° C | 89% | 4299.9 hPa | 0 mm | - | 0 W/m² | - |
| 1777541824 | 8.89° C | 89% | 4299.8 hPa | 0 mm | - | 0 W/m² | - |
| 1777541521 | 8.89° C | 89% | 4299.9 hPa | 0 mm | - | 0 W/m² | - |
| 1777541217 | 8.89° C | 88% | 4300.1 hPa | 0 mm | - | 0 W/m² | - |
| 1777540913 | 9.44° C | 87% | 4299.9 hPa | 0 mm | - | 0 W/m² | - |
* Rain latest hour (hover to see other rain measurements)
** Current wind speed in m/s (hover to see current wind gust speed)